STARLINK-1886 (47169 NORAD) Tracking and Keplerian Element Data
This shows tracking and keplerian element data for the satellite.
Feedback or suggestion? Click here.
Element | Value |
Catalog | 47169 |
Name | STARLINK-1886 |
Epoch Orbit | 973 |
Epoch Day | 21.16668981 |
Epoch Year | 2021 |
RAAN | 73.8414 |
Inclination | 53.054 |
Eccentricity | 0.0006946 |
Argument of Perigee | 288.8647 |
Mean Anonmoly | 34.5222 |
Mean Motion | 15.60043748 |
Decay Rate | 0.00019707 |
L1 | 1 47169U 20088AZ 21021.16668981 .00019707 00000-0 24446-3 0 9993 |
L2 | 2 47169 53.0540 73.8414 0006946 288.8647 34.5222 15.60043748 9736 |
Live tracking and technical data element details for STARLINK-1886 (NORAD 47169). STARLINK-1886 can be tracked NOW for your location showing map with azimuth and elevation plus other details from your city location.
Track the satellite on the map from your city or location and see movement details for azimuth, elevation, latitude, longitude, range, height, and movement on the map or in text.
IsCatalogInMostPopularTable: catalog: 47169, numindb: 29
Update: records affected: 1
GetName: 47169 STARLINK-1886
Hit Count: updated at: Sat, 23 Jan 2021 17:07:21 GMT